Location: Izdebno
(52.6670°N, 16.2170°E)
Time: 04:24:32
(UTC+01:00)

BlueWalker 3 - Pass Details

Date: 29 November 2023
Orbit: 485 x 500 km, 53.2° (Epoch: 29 February)

Event Time Altitude Azimuth Distance (km) Brightness Sun altitude
Exits shadow 04:42:45 44° 98° (E) 701 3.0 -26.0°
Drops below altitude 10° 04:45:26 10° 100° (E) 1,697 5.6 -25.5°
Enters shadow 05:41:35 -69° 294° (WNW) 12,456 8.9 -17.1°
